Regional Weather Roundup
Issued by NWS

Home | Current Version | Previous Version | Graphics & Text | Print | Product List | Glossary On
Versions: 1 2 3 4 5 6 7 8 9 10 11 12 13 14 15 16 17 18 19 20 21 22 23 24 25 26 27 28 29 30 31 32 33 34 35 36 37 38 39 40 41 42 43 44 45 46 47 48 49 50
000
ASUS43 KMKX 221511
RWRWI

WISCONSIN REGIONAL WEATHER ROUNDUP
NATIONAL WEATHER SERVICE MILWAUKEE/SULLIVAN WI
900 AM CST WED NOV 22 2017

NOTE: "FAIR" INDICATES FEW OR NO CLOUDS BELOW 12,000 FEET WITH NO
SIGNIFICANT WEATHER AND/OR OBSTRUCTIONS TO VISIBILITY.

WIZ001-002-006>008-014>016-023>028-221600-
NORTHWEST WISCONSIN

CITY           SKY/WX    TMP DP  RH WIND       PRES   REMARKS
SUPERIOR ARPT  CLOUDY    15  11  85 SW6       30.27F WCI   6
ASHLAND        SUNNY     18  10  71 SW10      30.28S WCI   6
HAYWARD        CLOUDY    17  10  74 SW10      30.27R WCI   5
SIREN          CLOUDY    17  12  81 SW5       30.28F WCI  10
CUMBERLAND     CLOUDY    18  12  79 SW7       30.28S WCI   8
RICE LAKE      CLOUDY    17  13  81 S6        30.31R WCI   9
CHETEK         CLOUDY    17  12  81 CALM      30.31R
LADYSMITH      CLOUDY    17  12  80 SW6       30.30R WCI   9
EAU CLAIRE     CLOUDY    17  11  77 W3        30.33F
MENOMONIE      CLOUDY    19  13  76 S3        30.33S
NEW RICHMOND   CLOUDY    18  13  79 SW7       30.30F WCI   9
OSCEOLA        CLOUDY    18  12  80 S5        30.33F WCI  11
$$

WIZ003>005-009-010-017-018-221600-
NORTH CENTRAL WISCONSIN

CITY           SKY/WX    TMP DP  RH WIND       PRES   REMARKS
MANITOWISH WTR CLOUDY    15  11  82 SW6       30.21S WCI   7
ARBOR VITAE    CLOUDY    19  13  77 W5        30.22S WCI  12
WOODRUFF       CLOUDY    19  13  77 W5        30.22S WCI  12
RHINELANDER    CLOUDY    18  12  77 SW7       30.23F WCI   9
EAGLE RIVER    CLOUDY    19  12  77 SW7       30.21S WCI   9
LAND O LAKES   CLOUDY    18  13  79 SW7       30.22S WCI   9
PHILLIPS       CLOUDY    15  10  82 SW5       30.24S WCI   8
TOMAHAWK       SUNNY     15  10  81 CALM      30.26F
MEDFORD        SUNNY     16  10  77 SW3       30.25F
MERRILL        SUNNY     19  10  70 NW3       30.27F
$$

WIZ029-030-035-036-043>047-221600-
CENTRAL WISCONSIN

CITY           SKY/WX    TMP DP  RH WIND       PRES   REMARKS
WAUSAU         SUNNY     19  10  68 W5        30.28S WCI  12
MOSINEE        SUNNY     19  12  73 W6        30.30S WCI  11
MARSHFIELD     SUNNY     18  11  74 W7        30.28F WCI   9
STEVENS POINT  SUNNY     19   9  65 W5        30.32R WCI  12
WAUPACA        SUNNY     24  14  64 W3        30.33S
WAUTOMA        SUNNY     20  13  74 W3        30.34S
WISC RAPIDS    SUNNY     20  13  74 NW6       30.34R WCI  12
CAMP DOUGLAS   SUNNY     19  12  73 W5        30.35R WCI  13
$$

WIZ011>013-019>022-031-037>040-048>050-221600-
NORTHEAST WISCONSIN

CITY           SKY/WX    TMP DP  RH WIND       PRES   REMARKS
ANTIGO         CLOUDY    17  11  76 W6        30.26F WCI   9
SHAWANO        CLOUDY    25  14  64 W6        30.31R WCI  18
OCONTO         CLOUDY    26  15  61 W6        30.30F WCI  20
STURGEON BAY   CLOUDY    26  15  63 W6        30.30  WCI  19
GREEN BAY      CLOUDY    26  16  65 W8        30.31S WCI  18
MANITOWOC      CLOUDY    26  16  65 W5        30.33R WCI  20
APPLETON       MOSUNNY   21  12  68 W7        30.30R WCI  13
CLINTONVILLE   SUNNY     23  10  58 NW8       30.32R WCI  14
OSHKOSH        SUNNY     22  15  75 W7        30.32R WCI  13
$$

WIZ032>034-041-042-053>061-221600-
SOUTHWEST WISCONSIN

CITY           SKY/WX    TMP DP  RH WIND       PRES   REMARKS
LA CROSSE      SUNNY     22  10  60 CALM      30.37S
SPARTA         CLOUDY    19  13  76 CALM      30.36S
VIROQUA        SUNNY     18  14  83 CALM      30.32S
BOSCOBEL       SUNNY     22  15  75 CALM      30.38S
PRAIRIE DU CHI SUNNY     21  13  68 CALM      30.38S
PLATTEVILLE    SUNNY     21  18  86 W5        30.36R WCI  15
$$

WIZ056-057-062-063-064-067-068-221600-
SOUTH CENTRAL WISCONSIN

CITY           SKY/WX    TMP DP  RH WIND       PRES   REMARKS
REEDSBURG      SUNNY     19  11  70 CALM      30.35R
BARABOO/DELLS  SUNNY     20  12  71 CALM      30.35R
LONE ROCK      SUNNY     21  15  78 W3        30.38R
MINERAL POINT  SUNNY     23  19  86 CALM      30.34R
MADISON        SUNNY     21  13  71 W3        30.35R
MIDDLETON      SUNNY     24  15  68 CALM      30.35S
WATERTOWN      SUNNY     21  15  78 NW3       30.34R
MONROE         SUNNY     23  14  68 NW6       30.33R WCI  16
JANESVILLE     SUNNY     25  16  68 CALM      30.34S
$$

WIZ051-052-058>065-066-070>072-221600-
SOUTHEAST WISCONSIN

CITY           SKY/WX    TMP DP  RH WIND       PRES   REMARKS
MILWAUKEE      MOSUNNY   26  15  63 NW6       30.34R WCI  19
WAUKESHA       SUNNY     21  14  73 W5        30.34R WCI  15
MILWAUKEE/TIMM SUNNY     23  12  63 W3        30.35R
RACINE         MOSUNNY   24  15  68 W7        30.36R WCI  16
BURLINGTON     SUNNY     26  21  80 CALM      30.34S
KENOSHA        SUNNY     25  16  68 NW8       30.34R WCI  16
FOND DU LAC    FLURRIES  23  14  68 W5        30.33R WCI  17
SHEBOYGAN      SUNNY     26  16  65 NW5       30.32R WCI  20
WEST BEND      SUNNY     23  16  74 NW3       30.32S
JUNEAU         SUNNY     20  14  76 CALM      30.34R
$$

LSZ147-162-221600-
LAKE SUPERIOR

STATION/POSITION TIME  TEMP    WIND        PRES    WAVE
                       AIR SEA DIR/SP/G            HT/PER
                 (UTC) (F)     (DEG/KT/KT) (MB)    (FT/S)
DEVILS ISLAND    1500   23     260/ 16/ 20 1025.5R
SAXON HARBOR     1440   19     190/  4/  9 1024.7S
$$

LMZ867-665-643>646-221600-
LAKE MICHIGAN

STATION/POSITION TIME  TEMP    WIND        PRES    WAVE
                       AIR SEA DIR/SP/G            HT/PER
                 (UTC) (F)     (DEG/KT/KT) (MB)    (FT/S)
N MID LAKE BUOY  1450   30 47  310/  8/ 14 1026.1R   2/ 4
NORTHPORT PIER   1451   28     300/  8/ 14 1025.4R
KEWAUNEE LAKESHO 1442   27      20/  3/  5 1025.5R
SHEBOYGAN LAKESH 1500   25     300/  7/  9 1027.7R
PORT WASHINGTON  1430   24     290/  6/  9 1028.4R
MILWAUKEE LAKESH 1450   25     320/  6/  7   N/A
S MID LAKE BUOY  1350   30 47  350/  2/ 12 1026.9S   4/ 7
KENOSHA   LAKESH 1500   24     280/  9/ 11 1027.8
$$

TC  - TEMPERATURE IN CELSIUS
VSB - VISIBILITY IN STATUTE MILES
WCI - WIND CHILL INDEX
HX  - HEAT INDEX





USA.gov is the U.S. government's official web portal to all federal, state and local government web resources and services.